Theta_e
308 309 309 309 309 309 309 309 310 311 311 311 312 313 313 315 316 308 303 309 313 320 320 317 317 317 317 311 309 306 295 295 296 297 300 300 301 303 308 313 317 320 319 322 333
308 308 308 308 308 308 308 308 308 309 310 310 312 312 313 313 307 302 311 317 319 320 313 311 309 313 308 309 308 302 295 296 300 301 301 298 299 300 308 311 315 318 324 330 331
307 308 308 308 308 308 308 309 308 308 308 309 311 311 312 309 300 299 314 318 319 319 314 313 312 311 305 306 306 303 298 300 301 304 301 298 298 300 306 308 313 316 320 326 328
308 308 308 308 308 308 308 308 309 308 308 308 310 310 310 303 287 301 315 318 320 315 311 308 307 303 302 300 305 299 304 304 304 304 303 299 299 298 302 306 304 314 324 326 326
308 308 308 308 308 308 309 308 309 308 308 307 309 310 302 293 293 307 315 315 315 311 308 305 302 301 299 301 302 301 303 305 305 304 303 302 298 298 298 301 311 320 325 324 325
308 308 308 308 308 308 308 308 308 308 308 307 308 308 299 286 302 306 308 309 310 310 307 306 304 306 302 302 300 303 302 302 303 303 303 300 298 298 301 308 320 323 323 323 324
309 308 308 308 308 308 308 308 308 308 308 308 308 304 296 293 305 304 307 307 310 310 305 307 306 304 303 298 302 300 297 299 301 302 301 302 297 295 300 313 316 319 319 322 325
309 309 309 308 308 308 308 307 308 308 308 307 307 302 291 303 307 303 304 307 310 311 309 308 307 301 301 302 299 294 294 290 298 301 302 298 293 299 300 301 311 313 319 319 322
309 309 308 308 308 308 307 307 307 307 307 307 299 296 288 304 299 303 303 303 307 309 309 309 304 298 298 292 289 290 285 287 292 301 299 296 295 298 300 298 298 309 314 318 320
309 308 308 308 307 307 307 307 305 302 301 302 301 291 294 293 300 301 301 305 303 305 303 301 297 291 292 290 281 282 284 288 288 293 297 294 293 297 299 297 297 298 299 305 310
309 308 307 306 306 306 300 292 288 288 292 289 289 289 294 297 301 298 302 302 303 300 293 296 289 285 287 289 289 289 288 287 291 293 292 290 291 295 298 296 295 298 298 301 305
308 307 306 305 306 305 294 288 291 294 285 292 293 294 295 297 292 296 302 293 294 286 292 291 283 288 291 292 290 288 285 285 289 292 290 287 288 294 295 295 295 296 299 297 295
308 306 305 304 304 294 289 290 297 297 285 287 290 291 289 294 292 293 297 293 291 287 289 286 287 290 291 288 286 285 284 285 286 289 290 287 285 288 294 293 294 295 295 293 293
308 306 304 304 293 290 288 295 296 296 273 279 284 291 289 293 290 298 298 293 291 285 290 288 291 288 287 286 287 282 289 288 286 285 281 285 280 284 292 293 292 292 292 292 292
308 306 305 301 290 288 292 293 290 286 265 280 285 296 293 289 291 292 300 293 287 287 287 284 287 286 285 286 288 285 289 287 287 283 280 281 278 282 288 291 287 290 291 290 289
307 306 305 297 292 292 293 289 284 268 263 272 283 286 285 288 291 294 292 295 292 287 286 285 290 290 289 290 290 289 286 285 284 282 276 279 278 279 281 287 287 290 290 289 288
307 306 299 295 288 293 288 282 267 262 273 272 278 284 285 283 286 289 288 285 280 276 275 283 284 287 290 286 289 287 283 276 272 272 273 278 277 279 285 287 288 290 288 287 287
306 301 297 294 292 289 283 272 261 261 264 278 280 282 280 284 284 287 284 282 285 281 278 275 277 283 288 286 284 284 283 274 266 269 273 279 276 279 286 287 287 286 286 286 286
302 292 292 293 291 286 276 263 264 267 278 278 278 274 274 282 283 284 281 281 284 283 275 276 277 286 288 289 288 284 280 283 276 269 273 277 279 285 287 285 285 285 285 284 284
292 290 291 294 288 281 271 267 265 276 280 280 268 275 270 271 279 281 282 284 285 286 285 280 277 285 287 290 289 285 286 278 277 268 267 274 277 278 283 285 285 284 283 283 283
288 285 291 290 285 275 265 259 271 280 282 277 276 275 277 276 279 280 278 283 284 285 285 281 278 282 285 283 282 282 279 281 279 277 270 270 274 284 284 286 286 285 284 284 283
284 280 291 286 273 264 264 273 281 280 282 281 281 280 277 277 277 275 278 281 285 285 282 283 279 276 280 286 287 286 283 281 276 272 274 275 274 287 287 287 287 286 285 283 282
281 284 289 284 266 261 272 276 280 279 280 280 280 282 284 279 275 279 279 285 286 286 284 284 273 271 275 279 283 280 284 284 282 280 275 272 275 287 287 286 287 286 284 283 281
278 272 277 280 277 270 268 273 275 282 281 281 281 283 282 277 278 276 280 284 288 287 289 286 279 270 269 274 277 280 283 282 279 273 277 277 278 283 285 285 285 286 285 283 282
281 274 278 273 274 274 275 275 269 274 280 282 279 280 280 274 275 278 281 283 286 286 284 282 275 277 276 276 278 276 282 282 275 273 275 278 280 283 284 283 284 286 285 283 282
277 279 280 277 280 277 275 274 272 272 279 278 276 279 280 274 276 277 280 281 281 284 282 280 272 275 273 275 278 275 279 278 275 278 278 277 278 284 284 284 284 285 285 283 283
280 282 280 282 278 273 274 278 277 278 281 281 280 279 276 278 280 282 282 281 280 280 279 275 270 268 266 271 272 268 274 279 279 279 278 275 280 282 282 283 285 285 285 285 284
Wind_Speed
12 13 14 13 13 14 15 16 16 17 18 18 19 17 15 17 20 8 15 8 11 13 4 6 6 6 4 4 3 2 2 13 7 7 4 1 4 2 2 4 4 3 4 2 18
12 12 13 13 13 13 14 15 17 18 19 18 18 19 17 19 11 13 12 16 19 11 6 7 9 11 6 5 3 4 5 8 5 3 3 2 3 2 2 4 1 3 6 12 15
10 11 12 12 12 13 14 16 16 18 19 19 20 18 15 10 5 15 16 26 23 19 9 5 2 9 11 7 6 6 4 3 4 8 5 1 1 1 3 3 6 7 11 14 16
10 11 12 13 13 14 15 17 17 18 19 20 20 16 12 2 9 3 17 27 27 13 9 7 7 4 8 13 12 7 6 4 3 6 6 1 4 3 5 3 5 4 16 16 16
10 11 11 12 14 16 16 16 18 18 19 20 19 14 1 2 11 8 10 5 17 13 15 10 14 9 9 11 14 9 8 6 4 8 12 8 4 2 4 3 3 8 13 14 14
11 11 12 13 14 15 16 17 18 19 20 19 18 13 3 9 6 16 8 7 8 15 14 11 8 8 2 11 13 9 6 4 4 2 8 8 2 3 4 2 9 14 11 14 16
13 12 12 12 13 15 17 18 20 19 20 19 18 5 5 11 6 7 5 7 7 15 12 8 4 5 7 5 5 7 9 3 5 6 4 10 2 7 2 2 8 11 11 15 16
13 13 13 13 14 16 18 19 21 21 21 18 13 4 6 2 7 18 7 4 6 7 8 8 6 5 3 8 5 5 6 5 1 6 1 4 7 3 2 1 5 7 8 12 14
13 13 12 12 14 16 17 20 22 22 16 12 4 4 7 8 6 10 5 4 4 5 5 7 5 4 3 9 4 4 6 4 1 9 3 4 4 3 7 1 4 5 5 6 6
12 12 11 11 11 13 17 20 18 6 6 2 2 3 3 2 5 5 4 5 4 8 9 6 4 4 4 9 8 8 6 4 3 5 5 3 9 6 10 4 6 4 5 6 4
12 9 9 8 9 12 8 6 7 4 5 6 6 8 1 8 11 1 2 3 7 5 5 9 5 9 9 2 7 11 10 7 5 3 4 4 8 5 10 8 5 6 6 4 6
10 6 6 5 7 8 3 3 3 3 8 6 8 7 2 7 1 3 2 3 1 3 11 5 5 6 9 12 14 7 13 5 2 5 3 5 6 7 6 7 4 6 4 6 6
8 4 2 3 4 4 2 3 5 3 4 6 6 5 5 7 3 4 3 3 4 3 13 11 7 10 13 10 11 3 8 5 2 3 2 3 4 4 5 3 3 2 5 7 8
8 4 3 1 4 1 1 5 5 3 3 8 7 3 7 7 2 1 0 3 4 2 6 5 3 13 10 5 8 5 6 8 9 3 1 1 1 2 7 6 4 8 9 9 9
9 7 5 3 3 1 3 5 1 4 4 15 6 2 5 5 0 4 3 5 4 6 2 1 9 10 13 9 6 4 9 7 4 4 3 4 1 1 3 11 8 6 5 8 8
12 10 12 4 2 2 4 3 5 9 3 9 6 8 3 6 4 3 4 5 3 5 6 3 4 4 5 7 7 8 13 6 3 2 1 5 3 2 1 1 4 3 2 5 7
14 14 5 2 1 6 3 5 8 7 4 10 5 6 2 4 5 3 5 0 3 6 4 5 3 4 4 10 4 8 8 3 3 2 4 2 3 1 3 4 3 4 5 4 6
19 13 7 4 4 3 4 8 10 3 6 4 4 6 5 5 2 2 5 3 4 5 4 4 2 2 2 5 9 11 8 5 7 5 2 2 4 1 1 2 4 7 6 6 6
15 3 3 6 5 3 7 7 8 7 5 8 8 6 5 2 3 3 3 3 1 2 6 4 2 5 3 3 6 6 3 2 7 3 4 2 2 2 2 3 4 5 5 5 4
4 3 3 9 4 6 8 2 3 3 5 2 2 2 2 6 3 4 3 3 2 3 0 3 5 2 1 5 4 3 6 2 3 4 2 1 1 1 4 4 2 3 4 4 3
5 4 3 6 4 8 5 4 2 3 4 3 2 4 5 4 4 4 3 3 5 5 4 3 4 1 2 4 3 2 3 5 5 3 4 4 1 1 2 4 3 4 3 3 3
4 3 3 4 7 2 3 2 5 3 2 3 4 1 1 3 5 4 2 4 6 3 4 2 4 5 5 2 2 3 4 5 4 3 1 1 0 1 1 4 2 3 4 3 3
4 2 3 5 4 2 2 2 2 4 4 4 2 1 1 2 1 1 2 3 6 6 2 2 3 4 3 2 2 5 3 4 5 3 2 4 2 2 1 2 1 2 3 4 4
4 3 5 5 2 6 3 2 3 2 3 2 4 2 3 1 2 3 3 3 2 4 8 5 4 4 5 2 2 5 5 3 5 4 3 2 4 4 2 2 2 4 4 5 4
4 1 2 2 3 3 1 3 3 4 3 3 4 5 5 2 4 2 2 2 4 8 4 5 4 4 4 4 3 3 6 4 4 4 5 3 5 2 2 2 3 1 3 4 4
5 4 2 1 1 2 6 2 1 4 2 3 2 5 2 2 1 2 1 3 2 5 4 3 3 3 5 8 7 5 4 6 3 3 5 3 2 4 1 4 1 2 4 6 5
0 1 4 2 1 4 1 2 2 1 2 3 2 3 9 5 4 3 7 9 5 3 3 4 5 3 2 4 4 5 4 3 3 2 7 4 5 3 2 0 3 1 5 5 6
Wind_Direction
341 347 345 343 339 337 332 329 329 327 320 319 308 298 305 311 284 281 248 234 212 235 172 142 166 173 129 132 215 283 147 212 199 171 225 193 178 192 313 132 145 107 100 94 134
343 343 341 340 335 334 334 332 328 322 317 313 311 304 296 349 267 255 234 228 225 229 170 181 182 176 190 154 158 175 168 201 185 159 222 303 225 184 154 151 295 84 62 134 144
334 332 329 329 330 328 326 326 327 323 317 313 315 304 293 1 255 245 220 226 222 221 186 210 178 200 194 169 195 151 244 186 60 36 320 227 211 266 122 260 203 180 156 164 153
318 321 320 320 324 324 322 323 320 323 318 316 316 305 311 32 259 273 223 218 217 202 164 178 189 196 196 165 190 178 215 220 67 36 326 224 308 212 168 247 36 162 159 165 160
312 315 317 323 323 322 318 319 318 314 315 315 318 299 333 231 244 287 314 257 200 188 182 183 191 191 215 179 167 213 183 194 27 35 329 289 235 190 234 209 133 159 155 163 170
298 303 304 316 316 316 315 312 312 308 309 312 310 302 189 231 275 265 265 290 189 173 180 187 204 190 216 182 176 166 129 79 135 304 310 293 241 255 212 153 124 157 170 172 175
297 295 298 310 310 308 311 310 308 304 301 304 298 281 228 256 256 291 268 221 183 178 170 188 136 179 158 120 111 106 133 185 193 130 264 331 222 249 111 189 158 166 167 176 178
297 297 301 300 302 305 308 312 305 296 298 293 296 224 246 236 289 281 304 237 180 175 170 157 120 150 152 110 90 113 82 179 209 154 115 311 195 255 197 94 170 173 175 172 179
291 293 300 304 301 298 310 309 300 301 291 292 291 219 262 350 279 247 195 202 159 174 181 139 130 163 180 115 108 17 138 144 294 187 124 230 209 46 355 135 242 176 182 154 172
288 294 299 313 309 307 315 311 301 333 306 236 264 292 345 235 280 177 178 194 173 140 164 139 162 147 167 152 188 154 124 119 94 20 162 197 277 27 337 9 258 212 173 167 167
291 288 310 311 314 323 351 351 8 331 56 301 310 279 147 319 266 110 219 152 141 152 174 169 160 184 166 115 125 117 111 104 95 2 19 13 294 298 316 328 304 259 182 171 169
280 289 306 304 322 345 60 39 314 290 313 314 283 263 63 272 301 76 113 126 62 74 132 128 167 152 123 112 117 102 112 85 83 128 67 359 291 265 277 287 258 251 220 139 122
250 248 257 283 4 43 77 310 316 132 286 306 292 9 316 309 360 172 116 75 75 105 164 154 172 153 152 135 119 104 110 123 126 99 84 305 277 194 243 225 269 17 66 62 84
224 195 182 111 44 281 43 309 317 187 45 328 348 72 345 294 23 38 78 101 78 125 86 101 320 153 152 133 125 106 144 148 157 111 163 298 167 242 203 239 15 45 29 53 67
196 168 163 124 165 27 331 317 300 59 48 327 336 285 318 6 64 39 319 39 111 138 156 200 154 142 155 155 122 140 125 117 113 107 111 317 137 270 174 226 78 37 21 55 65
166 149 128 78 45 317 341 353 51 43 304 332 322 343 339 352 26 96 53 21 177 76 71 89 108 99 156 136 104 136 85 54 80 131 175 207 185 350 123 182 116 153 55 43 48
144 130 74 74 314 326 4 41 39 87 333 316 335 330 358 6 359 94 128 176 125 99 40 31 11 352 117 102 84 111 118 112 56 73 210 308 153 132 332 353 8 191 140 92 65
120 93 84 76 323 357 54 50 71 269 264 310 283 292 42 13 314 123 102 119 357 86 96 123 137 52 157 131 157 167 169 149 157 185 169 15 220 171 341 24 74 60 92 86 67
104 48 43 342 343 68 73 56 182 207 292 319 321 18 353 48 5 102 97 98 14 16 121 124 20 323 42 123 135 176 179 152 111 33 76 189 78 260 165 78 72 90 90 90 86
85 82 23 324 355 60 72 141 124 262 312 306 95 242 330 319 66 3 76 11 90 25 21 192 107 333 9 77 41 158 151 95 19 112 114 297 243 112 331 354 130 113 111 100 85
61 66 293 343 50 45 105 219 294 251 286 17 334 342 351 359 27 14 17 77 10 337 73 127 84 123 76 28 138 127 87 65 99 86 154 134 276 290 309 307 199 161 156 137 110
86 71 322 20 51 55 89 187 343 3 7 331 315 329 341 7 357 65 72 3 347 303 58 19 108 65 61 61 13 280 154 122 125 235 130 121 221 233 17 359 125 165 148 122 104
68 33 338 72 98 346 320 3 336 340 1 337 322 276 11 83 47 59 7 8 349 18 27 16 7 89 26 3 9 68 16 102 96 65 187 112 195 180 101 65 28 206 184 157 148
92 48 342 43 153 120 127 9 9 296 297 289 301 296 292 79 99 158 130 7 10 22 32 71 58 129 151 153 143 134 141 54 100 94 160 154 125 267 167 115 236 222 207 200 190
49 352 191 26 5 88 104 134 356 16 319 287 342 349 313 340 10 80 80 123 38 353 44 79 94 53 47 6 70 125 149 124 96 177 133 212 152 210 162 54 355 318 191 201 209
118 134 29 105 70 48 352 339 104 314 331 354 55 342 21 68 266 153 108 37 67 21 57 17 114 114 27 0 32 76 72 96 79 87 77 59 284 121 116 118 45 316 197 215 230
203 55 101 106 79 72 306 334 25 285 102 34 359 71 48 23 27 50 74 71 70 94 88 55 123 70 285 345 360 9 221 170 131 131 136 164 231 26 229 187 160 297 238 245 212